Springfield, VT

9:18 PM EDT on April 23, 2018 (GMT -0400)
Hartness State

Weather History for KVSF - January, 2014

Change the Weather History Date:

Tuesday, January 7, 2014

  Actual Average Record
Temperature  
Mean Temperature 10 °F 20 °F  
Max Temperature 21 °F 29 °F 47 °F (2012)
Min Temperature -2 °F 10 °F -18 °F (2018)
Degree Days  
Heating Degree Days 55 45  
Month to date heating degree days 388 313  
Since 1 July heating degree days 3340 3176  
Cooling Degree Days 0 0  
Month to date cooling degree days 0  
Year to date cooling degree days 0  
Moisture  
Dew Point -10 °F    
Average Humidity 54    
Maximum Humidity 66    
Minimum Humidity 41    
Precipitation  
Precipitation 0.00 in 0.11 in 0.76 in (2009)
Month to date precipitation 1.29 0.90  
Year to date precipitation 1.29 0.90  
Sea Level Pressure  
Sea Level Pressure 29.92 in    
Wind  
Wind Speed 10 mph (West)    
Max Wind Speed 23 mph    
Max Gust Speed 34 mph    
Visibility 10 miles    
Events      
T = Trace of Precipitation, MM = Missing Value Source: NWS Daily Summary

Daily Weather History Graph

Daily Weather History Graph

Search for Another Location

Airport or City:

Astronomy

Jan. 07, 2014 Rise Set
Actual Time 7:22 AM EST 4:30 PM EST
Civil Twilight 6:50 AM EST 5:02 PM EST
Nautical Twilight 6:14 AM EST 5:38 PM EST
Astronomical Twilight 5:39 AM EST 6:13 PM EST
Moon 10:56 AM EST (1/7) No Moon Set
Length of Visible Light 10h 12m
Length of Day
9h 08m
Waxing Crescent, 45% of the Moon is Illuminated
Jan 7
Waxing Crescent
Jan 7
First Quarter
Jan 15
Full
Jan 24
Last Quarter
Jan 30
New

Hourly Weather History & Observations

Time (EST) Temp. Windchill Dew Point Humidity Pressure Visibility Wind Dir Wind Speed Gust Speed Precip Events Conditions
12:54 AM 19.0 °F 5.6 °F 6.1 °F 57% 29.55 in 10.0 mi WNW 13.8 mph 19.6 mph N/A   Overcast
1:54 AM 14.0 °F -2.5 °F -4.0 °F 45% 29.61 in 8.0 mi West 17.3 mph 34.5 mph N/A   Clear
2:54 AM 10.9 °F -5.4 °F -6.0 °F 47% 29.64 in 10.0 mi West 15.0 mph 26.5 mph N/A   Clear
3:54 AM 9.0 °F -3.2 °F -7.1 °F 48% 29.68 in 10.0 mi West 8.1 mph - N/A   Clear
4:54 AM 7.0 °F -5.7 °F -8.0 °F 51% 29.72 in 10.0 mi West 8.1 mph 21.9 mph N/A   Scattered Clouds
5:54 AM 6.1 °F -10.2 °F -7.1 °F 55% 29.75 in 10.0 mi West 12.7 mph 21.9 mph N/A   Scattered Clouds
6:54 AM 5.0 °F -10.8 °F -6.0 °F 61% 29.78 in 10.0 mi West 11.5 mph 17.3 mph N/A   Overcast
7:54 AM 5.0 °F -14.2 °F -8.0 °F 55% 29.82 in 10.0 mi West 17.3 mph 21.9 mph N/A   Overcast
8:54 AM 6.1 °F -10.2 °F -9.0 °F 50% 29.87 in 10.0 mi West 12.7 mph 20.7 mph N/A   Overcast
9:54 AM 6.1 °F -10.9 °F -9.9 °F 48% 29.91 in 10.0 mi West 13.8 mph 28.8 mph N/A   Partly Cloudy
10:54 AM 7.0 °F -11.6 °F -9.9 °F 46% 29.92 in 10.0 mi West 17.3 mph 26.5 mph N/A   Overcast
11:54 AM 7.0 °F -9.8 °F -11.0 °F 44% 29.93 in 10.0 mi West 13.8 mph 26.5 mph N/A   Overcast
12:54 PM 8.1 °F -7.0 °F -11.0 °F 42% 29.93 in 10.0 mi WSW 11.5 mph 19.6 mph N/A   Scattered Clouds
1:54 PM 7.0 °F -10.4 °F -13.0 °F 40% 29.95 in 10.0 mi WSW 15.0 mph 27.6 mph N/A   Clear
2:54 PM 5.0 °F -12.3 °F -11.0 °F 48% 30.00 in 10.0 mi WSW 13.8 mph 21.9 mph N/A   Mostly Cloudy
3:54 PM 5.0 °F -8.1 °F -11.0 °F 48% 30.01 in 10.0 mi WSW 8.1 mph 17.3 mph N/A   Mostly Cloudy
4:54 PM 3.9 °F -9.4 °F -13.0 °F 46% 30.04 in 10.0 mi WSW 8.1 mph 19.6 mph N/A   Scattered Clouds
5:54 PM 3.0 °F -9.3 °F -15.0 °F 43% 30.08 in 10.0 mi WSW 6.9 mph - N/A   Clear
6:54 PM 3.0 °F -14.1 °F -14.1 °F 45% 30.10 in 10.0 mi WSW 12.7 mph 19.6 mph N/A   Clear
7:54 PM 3.9 °F -8.2 °F -14.1 °F 43% 30.11 in 10.0 mi SW 6.9 mph 17.3 mph N/A   Clear
8:54 PM 3.0 °F - -15.0 °F 43% 30.13 in 10.0 mi Calm Calm - N/A   Clear
9:54 PM 3.9 °F -3.4 °F -13.0 °F 46% 30.14 in 10.0 mi SW 3.5 mph - N/A   Clear
10:54 PM -0.0 °F -7.9 °F -11.0 °F 60% 30.15 in 10.0 mi Variable 3.5 mph - N/A   Clear
11:54 PM -0.9 °F - -11.0 °F 62% 30.16 in 10.0 mi Calm Calm - N/A   Scattered Clouds